Location: Prosper
(33.2362°N, 96.8011°W)
Time: 02:14:24
(UTC+00:00)

Cosmos 1867 - Pass Details

Date: 03 December 2021
Orbit: 773 x 802 km, 65.0° (Epoch: 17 January)

Event Time Altitude Azimuth Distance (km) Brightness Sun altitude
Exits shadow 12:13:46 16° 304° (NW) 1,974 5.0 -12.6°
Maximum altitude 12:17:21 33° 249° (WSW) 1,310 4.3 -11.9°
Drops below altitude 10° 12:22:10 10° 186° (S) 2,351 6.2 -10.9°
Sets 12:24:46 0° 177° (S) 3,272 7.1 -10.4°
